Location: Kellogg
(38.0159°N, 90.0546°W)
Time: 03:18:57
(UTC+00:00)

SR - Pass Details

Date: 14 September 2024
Orbit: 577 x 855 km, 66.7° (Epoch: 10 October)

Event Time Altitude Azimuth Distance (km) Brightness Sun altitude
Rises 04:42:12 0° 330° (NNW) 2,964 ? -45.4°
Enters shadow 04:43:20 - 329° (NNW) 2,512 ? -45.5°
Reaches altitude 10° 04:44:25 10° 328° (NNW) 2,089 - -45.6°
Maximum altitude 04:49:09 75° 244° (WSW) 731 - -46.0°
Drops below altitude 10° 04:54:17 10° 159° (SSE) 2,260 - -46.4°
Sets 04:56:45 0° 158° (SSE) 3,226 - -46.6°
